When you browse on this site, cookies collect data to enhance your experience and personalize the content and advertising you see.
Visit our Privacy Policy to learn more. By continuing to use the site, you agree to this use of cookies and data.
  • En España
  • Lista de países
  • Para 7 días
  • Temperatura del agua
  • Mapa Satelital
  • El tiempo en el mapa
  • Informadores
  • user-avatar
    Iniciar sesión

    Tiempo cada hora Barra

    Hoy, 18 Febrero, Lunes

    Tiempo Temperatura Precipitaciones Viento Presión Humedad
    00:00 +23°C° 0 mm 0 mps 746 mmHg 90%
    01:00 +23°C° 0 mm 0 mps 746 mmHg 91%
    02:00 +23°C° 0 mm 0 mps 746 mmHg 92%
    03:00 +23°C° 0 mm 0 mps 746 mmHg 93%
    04:00 +25°C° 0 mm 1 mps 746 mmHg 93%
    05:00 +25°C° 0 mm 1 mps 746 mmHg 92%
    06:00 +25°C° 0 mm 1 mps 746 mmHg 91%
    07:00 +25°C° 0 mm 1 mps 746 mmHg 90%
    08:00 +28°C° 0 mm 1 mps 746 mmHg 80%
    09:00 +31°C° 0 mm 1 mps 746 mmHg 69%
    10:00 +33°C° 0 mm 1 mps 747 mmHg 62%
    11:00 +34°C° 0 mm 1 mps 746 mmHg 57%
    12:00 +35°C° 0 mm 1 mps 746 mmHg 52%
    13:00 +37°C° 0 mm 2 mps 745 mmHg 47%
    14:00 +37°C° 0 mm 2 mps 745 mmHg 51%
    15:00 +36°C° 0 mm 2 mps 745 mmHg 55%
    16:00 +34°C° 0 mm 3 mps 744 mmHg 61%
    17:00 +33°C° 0 mm 3 mps 744 mmHg 69%
    18:00 +30°C° 0 mm 2 mps 745 mmHg 78%
    19:00 +28°C° 0 mm 2 mps 745 mmHg 87%
    20:00 +28°C° 0 mm 2 mps 745 mmHg 89%
    21:00 +27°C° 0 mm 2 mps 745 mmHg 91%
    22:00 +27°C° 0 mm 3 mps 746 mmHg 92%
    23:00 +27°C° 0.3 mm 2 mps 746 mmHg 92%

    Mañana, 19 Febrero, Martes

    Tiempo Temperatura Precipitaciones Viento Presión Humedad
    00:00 +26°C° 0.3 mm 2 mps 745 mmHg 92%
    01:00 +26°C° 0.3 mm 2 mps 745 mmHg 91%
    02:00 +26°C° 0 mm 2 mps 745 mmHg 91%
    03:00 +26°C° 0 mm 2 mps 745 mmHg 90%
    04:00 +26°C° 0 mm 1 mps 745 mmHg 89%
    05:00 +26°C° 0 mm 1 mps 745 mmHg 88%
    06:00 +26°C° 0 mm 1 mps 745 mmHg 86%
    07:00 +26°C° 0 mm 1 mps 745 mmHg 84%
    08:00 +29°C° 0 mm 1 mps 745 mmHg 72%
    09:00 +32°C° 0 mm 1 mps 745 mmHg 60%
    10:00 +35°C° 0 mm 1 mps 745 mmHg 49%
    11:00 +37°C° 0 mm 1 mps 745 mmHg 44%
    12:00 +39°C° 0 mm 2 mps 744 mmHg 39%
    13:00 +41°C° 0 mm 2 mps 744 mmHg 34%
    14:00 +40°C° 0 mm 2 mps 743 mmHg 38%
    15:00 +39°C° 0 mm 2 mps 743 mmHg 42%
    16:00 +38°C° 0 mm 3 mps 742 mmHg 46%
    17:00 +36°C° 0 mm 2 mps 742 mmHg 54%
    18:00 +34°C° 0 mm 2 mps 743 mmHg 62%
    19:00 +31°C° 0 mm 2 mps 743 mmHg 70%
    20:00 +30°C° 0 mm 2 mps 743 mmHg 71%
    21:00 +29°C° 0 mm 2 mps 744 mmHg 72%
    22:00 +29°C° 0 mm 1 mps 744 mmHg 73%
    23:00 +28°C° 0 mm 1 mps 744 mmHg 77%

    Pasado mañana, 20 Febrero, Miércoles

    Tiempo Temperatura Precipitaciones Viento Presión Humedad
    00:00 +28°C° 0 mm 1 mps 744 mmHg 80%
    01:00 +27°C° 0 mm 1 mps 743 mmHg 83%
    02:00 +27°C° 0 mm 1 mps 743 mmHg 80%
    03:00 +27°C° 0 mm 2 mps 743 mmHg 77%
    04:00 +26°C° 0 mm 2 mps 742 mmHg 74%
    05:00 +27°C° 0 mm 3 mps 742 mmHg 73%
    06:00 +27°C° 0 mm 3 mps 743 mmHg 72%
    07:00 +28°C° 0 mm 4 mps 743 mmHg 71%
    08:00 +31°C° 0 mm 3 mps 743 mmHg 62%
    09:00 +35°C° 0 mm 3 mps 744 mmHg 53%
    10:00 +37°C° 0 mm 3 mps 744 mmHg 43%
    11:00 +39°C° 0 mm 3 mps 744 mmHg 37%
    12:00 +42°C° 0 mm 3 mps 743 mmHg 30%
    13:00 +44°C° 0 mm 3 mps 743 mmHg 24%
    14:00 +43°C° 0 mm 3 mps 742 mmHg 26%
    15:00 +43°C° 0 mm 3 mps 741 mmHg 28%
    16:00 +42°C° 0 mm 3 mps 741 mmHg 30%
    17:00 +38°C° 0 mm 2 mps 741 mmHg 43%
    18:00 +35°C° 0 mm 2 mps 741 mmHg 56%
    19:00 +31°C° 0 mm 2 mps 741 mmHg 69%
    20:00 +30°C° 0 mm 2 mps 742 mmHg 66%
    21:00 +29°C° 0 mm 1 mps 742 mmHg 63%
    22:00 +28°C° 0 mm 1 mps 743 mmHg 60%
    23:00 +28°C° 0 mm 1 mps 742 mmHg 54%

    21 Febrero, Jueves

    Tiempo Temperatura Precipitaciones Viento Presión Humedad
    00:00 +28°C° 0 mm 2 mps 742 mmHg 48%
    01:00 +28°C° 0 mm 2 mps 742 mmHg 42%
    02:00 +28°C° 0 mm 2 mps 742 mmHg 38%
    03:00 +28°C° 0 mm 2 mps 742 mmHg 35%
    04:00 +28°C° 0 mm 3 mps 741 mmHg 31%
    05:00 +28°C° 0 mm 3 mps 742 mmHg 33%
    06:00 +27°C° 0 mm 3 mps 742 mmHg 35%
    07:00 +27°C° 0 mm 3 mps 743 mmHg 36%
    08:00 +30°C° 0 mm 3 mps 743 mmHg 32%
    09:00 +34°C° 0 mm 3 mps 744 mmHg 28%
    10:00 +37°C° 0 mm 3 mps 744 mmHg 24%
    11:00 +38°C° 0 mm 3 mps 743 mmHg 21%
    12:00 +40°C° 0 mm 3 mps 743 mmHg 18%
    13:00 +42°C° 0 mm 2 mps 742 mmHg 16%
    14:00 +41°C° 0 mm 2 mps 742 mmHg 19%
    15:00 +40°C° 0 mm 2 mps 741 mmHg 22%
    16:00 +39°C° 0 mm 2 mps 740 mmHg 25%
    17:00 +36°C° 0 mm 2 mps 741 mmHg 36%
    18:00 +32°C° 0 mm 2 mps 741 mmHg 46%
    19:00 +29°C° 0 mm 1 mps 741 mmHg 57%
    20:00 +28°C° 0 mm 1 mps 742 mmHg 58%
    21:00 +27°C° 0 mm 1 mps 742 mmHg 59%
    22:00 +25°C° 0 mm 0 mps 743 mmHg 60%
    23:00 +24°C° 0 mm 0 mps 743 mmHg 58%

    22 Febrero, Viernes

    Tiempo Temperatura Precipitaciones Viento Presión Humedad
    00:00 +26°C° 0 mm 1 mps 743 mmHg 56%
    01:00 +25°C° 0 mm 1 mps 742 mmHg 54%
    02:00 +25°C° 0 mm 1 mps 742 mmHg 51%
    03:00 +24°C° 0 mm 1 mps 742 mmHg 47%
    04:00 +24°C° 0 mm 2 mps 742 mmHg 43%
    05:00 +24°C° 0 mm 2 mps 742 mmHg 43%
    06:00 +23°C° 0 mm 2 mps 743 mmHg 43%
    07:00 +23°C° 0 mm 2 mps 743 mmHg 42%
    08:00 +27°C° 0 mm 1 mps 743 mmHg 36%
    09:00 +31°C° 0 mm 1 mps 744 mmHg 30%
    10:00 +35°C° 0 mm 1 mps 744 mmHg 23%
    11:00 +36°C° 0 mm 1 mps 743 mmHg 22%
    12:00 +38°C° 0 mm 2 mps 743 mmHg 22%
    13:00 +39°C° 0 mm 2 mps 742 mmHg 21%
    14:00 +38°C° 0 mm 3 mps 742 mmHg 27%
    15:00 +37°C° 0 mm 3 mps 742 mmHg 33%
    16:00 +36°C° 0 mm 3 mps 741 mmHg 39%
    17:00 +32°C° 0 mm 2 mps 742 mmHg 53%
    18:00 +30°C° 0 mm 2 mps 742 mmHg 68%
    19:00 +27°C° 0 mm 1 mps 743 mmHg 82%
    20:00 +27°C° 0 mm 1 mps 743 mmHg 85%
    21:00 +27°C° 0 mm 1 mps 744 mmHg 88%
    22:00 +27°C° 0 mm 1 mps 745 mmHg 91%
    23:00 +27°C° 0.1 mm 1 mps 744 mmHg 92%

    23 Febrero, Sábado

    Tiempo Temperatura Precipitaciones Viento Presión Humedad
    00:00 +27°C° 0.1 mm 2 mps 744 mmHg 92%
    01:00 +27°C° 0.1 mm 2 mps 744 mmHg 93%
    02:00 +26°C° 0 mm 2 mps 744 mmHg 94%
    03:00 +26°C° 0 mm 2 mps 743 mmHg 95%
    04:00 +26°C° 0 mm 2 mps 743 mmHg 96%
    05:00 +26°C° 0 mm 2 mps 744 mmHg 95%
    06:00 +26°C° 0 mm 2 mps 744 mmHg 94%
    07:00 +26°C° 0 mm 1 mps 745 mmHg 93%
    08:00 +28°C° 0 mm 1 mps 745 mmHg 82%
    09:00 +31°C° 0 mm 1 mps 745 mmHg 71%
    10:00 +33°C° 0 mm 1 mps 745 mmHg 61%
    11:00 +35°C° 0 mm 2 mps 745 mmHg 56%
    12:00 +36°C° 0 mm 2 mps 744 mmHg 52%
    13:00 +37°C° 0 mm 3 mps 744 mmHg 48%
    14:00 +36°C° 0 mm 3 mps 744 mmHg 53%
    15:00 +35°C° 0 mm 3 mps 744 mmHg 58%
    16:00 +34°C° 0 mm 3 mps 743 mmHg 63%
    17:00 +31°C° 0 mm 3 mps 744 mmHg 70%
    18:00 +29°C° 0 mm 2 mps 744 mmHg 78%
    19:00 +28°C° 0 mm 2 mps 745 mmHg 86%
    20:00 +28°C° 0 mm 1 mps 745 mmHg 88%
    21:00 +27°C° 0 mm 1 mps 746 mmHg 90%
    22:00 +27°C° 0 mm 1 mps 746 mmHg 92%
    23:00 +27°C° 0 mm 1 mps 746 mmHg 93%
    Mostrar más